Flight Track Log - Related Links

Times and Time Zones

All times are in EDT time to prevent confusion due to time zone crossing. See the ASQ5996 flight status page for this flight to view local times or setup timezone preferences in your user account.

Time Position Orientation Groundspeed Altitude Reporting Facility
EDT Latitude Longitude Course Direction KTS MPH feet Rate Location/Type
Thu 10:47:15 AM 36.1167 -86.6833 90° East 147 169 1,500  Level Nashville TRACON
Thu 10:48:03 AM 36.1000 -86.7333 248° West 183 211 2,900 2,353 Climbing Nashville TRACON
Thu 10:48:57 AM 36.0833 -86.7833 248° West 218 251 5,500 2,474 Climbing Nashville TRACON
Thu 10:49:57 AM 36.1500 -86.8167 338° Northwest 279 321 7,600 2,350 Climbing Nashville TRACON
Thu 10:50:57 AM 36.2167 -86.7667 31° Northeast 296 341 10,200 2,391 Climbing Nashville TRACON
Thu 10:51:00 AM 36.5665 -86.4667 22° Northeast  Level FlightAware Approximate
Thu 10:52:00 AM 36.6500 -86.4235 90° East  Level FlightAware Approximate
Thu 10:52:15 AM 36.2925 -86.7028 34° Northeast 300 345 13,100  Level Memphis Center
Thu 10:53:17 AM 36.3672 -86.6436 33° Northeast 314 361 14,900 2,032 Climbing Memphis Center
Thu 10:54:19 AM 36.4589 -86.5706 33° Northeast 329 379 17,300 2,032 Climbing Memphis Center
Thu 10:55:21 AM 36.5386 -86.5078 32° Northeast 332 382 19,100 1,839 Climbing Memphis Center
Thu 10:56:23 AM 36.6231 -86.4506 29° Northeast 339 390 21,100 1,839 Climbing Memphis Center
Thu 10:57:25 AM 36.7158 -86.4044 22° Northeast 352 405 22,900 1,742 Climbing Memphis Center
Thu 10:58:27 AM 36.8094 -86.3569 22° Northeast 355 409 24,700 1,603 Climbing Memphis Center
Thu 10:59:36 AM 36.9231 -86.3017 21° North 369 425 26,400 1,548 Climbing Indianapolis Center
Thu 11:00:31 AM 37.0231 -86.2511 22° Northeast 377 434 27,900 1,538 Climbing Memphis Center
Thu 11:01:33 AM 37.1253 -86.2008 21° North 385 443 29,400 1,355 Climbing Memphis Center
Thu 11:02:35 AM 37.2269 -86.1497 22° Northeast 385 443 30,700 774 Climbing Memphis Center
Thu 11:03:37 AM 37.3278 -86.0869 26° Northeast 395 455 31,000 144 Climbing Memphis Center
Thu 11:04:40 AM 37.4350 -86.0419 18° North 403 464 31,000  Level Memphis Center
Thu 11:05:42 AM 37.5458 -86.0306 North 397 457 31,000  Level Memphis Center
Thu 11:06:44 AM 37.6564 -86.0181 North 396 456 31,000  Level Memphis Center
Thu 11:07:52 AM 37.7808 -86.0058 North 397 457 31,000  Level Indianapolis Center
Thu 11:08:53 AM 37.8911 -85.9925 North 397 457 31,000  Level Indianapolis Center
Thu 11:09:55 AM 38.0219 -85.9772 North 397 457 31,000  Level Indianapolis Center
Thu 11:10:57 AM 38.1306 -85.9644 North 396 456 31,000  Level Indianapolis Center
Thu 11:11:58 AM 38.2400 -85.9511 North 395 455 31,000  Level Indianapolis Center
Thu 11:13:00 AM 38.3481 -85.9389 North 394 453 31,000  Level Indianapolis Center
Thu 11:14:02 AM 38.4550 -85.9256 North 390 449 31,000  Level Indianapolis Center
Thu 11:15:04 AM 38.5628 -85.9131 North 389 448 31,000  Level Indianapolis Center
Thu 11:16:06 AM 38.6706 -85.9006 North 389 448 31,000 -774 Level Indianapolis Center
Thu 11:17:08 AM 38.7931 -85.8861 North 396 456 29,400 -1,403 Descending Indianapolis Center
Thu 11:18:10 AM 38.8908 -85.8292 24° Northeast 399 459 28,100 -683 Descending Indianapolis Center
Thu 11:19:11 AM 38.9719 -85.7303 43° Northeast 400 460 28,000 -47 Descending Indianapolis Center
Thu 11:20:17 AM 39.0700 -85.6106 43° Northeast 405 466 28,000  Level Indianapolis Center
Thu 11:21:27 AM 39.1697 -85.4894 43° Northeast 409 471 28,000  Level Indianapolis Center
Thu 11:22:29 AM 39.2544 -85.3889 43° Northeast 411 473 28,000  Level Indianapolis Center
Thu 11:23:31 AM 39.3378 -85.2881 43° Northeast 412 474 28,000  Level Indianapolis Center
Thu 11:24:34 AM 39.4261 -85.1964 39° Northeast 413 475 28,000  Level Indianapolis Center
Thu 11:25:35 AM 39.5342 -85.1969 360° North 400 460 28,000  Level Indianapolis Center
Thu 11:26:37 AM 39.6514 -85.2531 340° North 381 438 28,000  Level Indianapolis Center
Thu 11:27:38 AM 39.7481 -85.3017 339° North 377 434 28,000  Level Indianapolis Center
Thu 11:28:40 AM 39.8433 -85.3503 339° North 374 430 28,000 -387 Level Indianapolis Center
Thu 11:29:42 AM 39.9381 -85.3978 339° North 373 429 27,200 -871 Descending Indianapolis Center
Thu 11:30:44 AM 40.0278 -85.4436 339° North 359 413 26,200 -581 Descending Indianapolis Center
Thu 11:31:46 AM 40.1183 -85.5372 322° Northwest 355 409 26,000 -484 Descending Indianapolis Center
Thu 11:32:48 AM 40.1842 -85.6206 316° Northwest 339 390 25,200 -462 Descending Indianapolis Center
Thu 11:33:56 AM 40.2469 -85.7017 315° West 327 376 25,000 -339 Descending Chicago Center
Thu 11:34:52 AM 40.3142 -85.7906 315° West 334 384 24,500 -763 Descending Indianapolis Center
Thu 11:35:54 AM 40.3794 -85.8761 315° West 336 387 23,500 -726 Descending Indianapolis Center
Thu 11:36:56 AM 40.4442 -85.9611 315° West 335 386 23,000 -242 Descending Indianapolis Center
Thu 11:37:58 AM 40.5228 -86.0631 315° West 335 386 23,000 -97 Level Indianapolis Center
Thu 11:39:00 AM 40.5869 -86.1478 315° West 332 382 22,800 -581 Descending Indianapolis Center
Thu 11:40:02 AM 40.6483 -86.2294 315° West 322 371 21,800 -1,016 Descending Indianapolis Center
Thu 11:41:04 AM 40.7103 -86.3117 315° West 320 368 20,700 -1,016 Descending Indianapolis Center
Thu 11:42:06 AM 40.7725 -86.3947 315° West 320 368 19,700 -1,016 Descending Indianapolis Center
Thu 11:43:08 AM 40.8308 -86.4742 314° West 309 356 18,600 -968 Descending Indianapolis Center
Thu 11:44:10 AM 40.8983 -86.5631 315° West 292 336 17,700 -919 Descending Indianapolis Center
Thu 11:45:12 AM 40.9511 -86.6342 315° West 283 326 16,700 -1,016 Descending Indianapolis Center
Thu 11:46:14 AM 41.0042 -86.7047 315° West 277 319 15,600 -1,039 Descending Indianapolis Center
Thu 11:47:19 AM 41.0689 -86.7922 314° West 290 334 14,500 -1,048 Descending Chicago Center
Thu 11:48:20 AM 41.1297 -86.8728 315° West 284 327 13,400 -1,073 Descending Chicago Center
Thu 11:49:22 AM 41.1811 -86.9422 315° West 266 306 12,300 -1,065 Descending Chicago Center
Thu 11:50:24 AM 41.2342 -87.0158 314° West 259 298 11,200 -629 Descending Chicago Center
Thu 11:51:26 AM 41.2847 -87.0842 315° West 259 298 11,000 -98 Descending Chicago Center
Thu 11:52:27 AM 41.3350 -87.1522 315° West 259 298 11,000  Level Chicago Center
Thu 11:53:29 AM 41.3925 -87.2258 316° Northwest 263 303 11,000  Level Chicago Center
Thu 11:54:31 AM 41.4461 -87.2900 318° Northwest 261 300 11,000  Level Chicago Center
Thu 11:55:32 AM 41.5014 -87.3558 318° Northwest 263 303 11,000  Level Chicago Center
Thu 11:56:34 AM 41.5692 -87.4175 326° Northwest 271 312 11,000 -242 Level Chicago Center
Thu 11:57:36 AM 41.6308 -87.4742 326° Northwest 272 313 10,500 -823 Descending Chicago Center
Thu 11:58:38 AM 41.7022 -87.5208 334° Northwest 267 307 9,300 -1,073 Descending Chicago Center
Thu 11:59:39 AM 41.7711 -87.5589 338° Northwest 268 308 8,300 -976 Descending Chicago Center
Thu 12:00:41 PM 41.8381 -87.5956 338° Northwest 265 305 7,300 -1,113 Descending Chicago Center
Thu 12:01:43 PM 41.9042 -87.6281 340° North 238 274 6,000 -1,306 Descending Chicago Center
Thu 12:02:45 PM 41.9422 -87.6847 312° West 207 238 4,600 -1,065 Descending Chicago Center
Thu 12:03:47 PM 41.9658 -87.7444 298° West 169 194 3,800 -829 Descending Chicago Center
Thu 12:04:48 PM 41.9653 -87.8022 269° West 157 181 2,900 -1,171 Descending Chicago Center
Thu 12:05:50 PM 41.9650 -87.8497 270° West 131 151 1,400 -1,016 Descending Chicago Center
Thu 12:06:52 PM 41.9650 -87.8994 270° West 125 144 800 -581 Descending Chicago Center

Login

Don't have an account? Register now (free) for customized features, flight alerts, and more!